Back to catalog

SPACEWAY 3

AliveCommunicationsGEO
NORAD 32018·PAYLOAD·🇺🇸 United States

Launched Aug 14, 2007 from Guiana Space Centre

Loading…

TLE

FreshSource: Space-Track

Epoch: Sep 14, 2026, 10:11 UTC

1 32018U 07036A   26257.42467116 -.00000247  00000-0  00000-0 0  9997
2 32018   4.2286  76.0219 0001257 135.0788 255.5566  0.99141961 47342

Track SPACEWAY 3 in real time with AllMySat

Download on the App Store